Regional Weather Roundup
Issued by NWS

Home | Current Version | Previous Version | Graphics & Text | Print | Product List | Glossary On
Versions: 1 2 3 4 5 6 7 8 9 10 11 12 13 14 15 16 17 18 19 20 21 22 23 24 25 26 27 28
000
ASUS45 KGTF 241410
RWRMT
MONTANA HOURLY WEATHER ROUNDUP
NATIONAL WEATHER SERVICE GREAT FALLS MT
800 AM MDT FRI APR 24 2015

NOTE: "FAIR" INDICATES FEW OR NO CLOUDS BELOW 12000 FEET WITH NO
SIGNIFICANT WEATHER AND/OR OBSTRUCTIONS TO VISIBILITY.

MTZ001>007-043-241500-
WEST OF THE DIVIDE

CITY           SKY/WX    TMP DP  RH WIND       PRES   REMARKS
KALISPELL      CLOUDY    43  36  76 S7        29.70R
MISSOULA       CLOUDY    44  37  76 SW5       29.73R
BUTTE          CLOUDY    37  27  67 CALM      29.68R
DEER LODGE       N/A     39  36  87 N7        29.73R
EUREKA           N/A     45  34  65 SE3       29.69R
HAMILTON         N/A     43  37  81 S6        29.71R
LIBBY            N/A     39  36  87 CALM      29.70R
$$

MTZ008-052>055-241500-
SOUTHWEST MONTANA

CITY           SKY/WX    TMP DP  RH WIND       PRES   REMARKS
BOZEMAN        CLOUDY    42  35  76 SE3       29.65R
DILLON         CLOUDY    46  22  38 S6        29.64R
$$

MTZ009-010-012-014-046-048-049-054-241500-
EAST SLOPES AND CENTRAL MONTANA

CITY           SKY/WX    TMP DP  RH WIND       PRES   REMARKS
CUT BANK       CLOUDY    42  31  64 W6        29.63S
GREAT FALLS    CLOUDY    47  33  58 CALM      29.64R
MALMSTROM AFB  CLOUDY    45  31  59 NW5       29.64R
HELENA         LGT RAIN  45  36  70 CALM      29.67R
$$

MTZ011-013-016-021-045-047-050-051-241500-
NORTH CENTRAL MONTANA

CITY           SKY/WX    TMP DP  RH WIND       PRES   REMARKS
HAVRE          PTSUNNY   42  34  73 SW8       29.63R
LEWISTOWN      CLOUDY    43  37  79 CALM      29.63F
CHINOOK          N/A     41  37  87 W7        29.62S
FORT BENTON      N/A     43  34  70 CALM      29.65R
$$

MTZ017>020-022>042-056>058-061-062-241500-
EASTERN PLAINS

CITY           SKY/WX    TMP DP  RH WIND       PRES   REMARKS
BAKER          SUNNY     46  35  65 SE3       29.64S
BILLINGS       PTSUNNY   50  42  74 W3        29.61S
GLASGOW        PTSUNNY   41  33  73 SE13      29.62S
JORDAN           N/A     43  34  70 CALM      29.60S
LIVINGSTON     PTSUNNY   41  35  79 CALM      29.63F
MILES CITY     SUNNY     45  32  60 NE6       29.62S
SIDNEY         MOSUNNY   39  27  60 N5        29.66S
WOLF POINT     MOSUNNY   39  33  79 E12       29.65S WCI  32
FORSYTH          N/A     46  41  81 NE5       29.60S
PLENTYWOOD       N/A     36  30  80 CALM      29.67
POPLAR           N/A     37  32  81 NE6       29.65F
$$

REGIONAL REPORTS...DAKOTAS

CITY           SKY/WX    TMP DP  RH WIND       PRES   REMARKS
WILLISTON      MOSUNNY   41  25  53 E3        29.67S
MINOT          SUNNY     38  28  67 E12       29.72S WCI  30
DICKINSON      SUNNY     38  24  57 E5        29.64R
BEACH          FAIR      43  32  65 E7        29.64F
CROSBY         FAIR      39  27  60 SE7       29.69F
WATFORD CITY   FAIR      37  27  65 SE13      29.65S WCI  29
BISMARCK       SUNNY     41  29  62 E9        29.67F
GRAND FORKS    CLOUDY    42  33  70 SE16      29.79F
FARGO          CLOUDY    44  35  70 SE23G33   29.74F
BUFFALO SD       N/A     45  35  68 CALM      29.58R
RAPID CITY     PTSUNNY   53  43  68 N9        29.61R
$$

REGIONAL REPORTS...WYOMING/IDAHO/WASHINGTON

CITY           SKY/WX    TMP DP  RH WIND       PRES   REMARKS
GILLETTE       MOSUNNY   48  42  80 CALM      29.65R
SHERIDAN       MOSUNNY   42  40  92 CALM      29.64S
BUFFALO WY     SUNNY     54  36  50 CALM      29.66R
CODY           MOSUNNY   52  23  32 W13G22    29.66S
YELLOWSTONE LA   N/A     29  24  82 CALM      29.79R
IDAHO FALLS    PTSUNNY   46  35  65 SW8       29.70S
SALMON         CLOUDY    46  34  61 CALM      29.64R
BOISE          LGT RAIN  46  43  89 N6        29.75S
SPOKANE        PTSUNNY   38  31  76 SW15      29.73R WCI  29
$$

REGIONAL REPORTS...ALBERTA

CITY           SKY/WX    TMP DP  RH WIND       PRES   REMARKS
EDMONTON       CLOUDY    37  36  93 NE7       29.71R FOG
CALGARY        CLOUDY    36  30  80 N12       29.64S WCI  27
LETHBRIDGE     CLOUDY    39  30  70 NW22      29.63R WCI  29
MEDICINE HAT   PTSUNNY   45  34  65 S7        29.59S
$$

REGIONAL REPORTS...SASKATCHEWAN

CITY           SKY/WX    TMP DP  RH WIND       PRES   REMARKS
SWIFT CURRENT  CLOUDY    48  36  61 S6        29.60R
REGINA         PTSUNNY   36  28  75 SE14      29.69S WCI  27
SASKATOON      CLOUDY    39  36  87 E9        29.68S
$$



USA.gov is the U.S. government's official web portal to all federal, state and local government web resources and services.